カタログに戻る

VELA 9/10 INTERSTAGE

運用中軍事HEO
NORAD 60001·PAYLOAD·🇺🇸 United States

打ち上げ May 23, 1969 から Cape Canaveral Space Force Station

Loading…

次のパス (今後24時間)

TLE

古いSource: Space-Track

元期: Aug 15, 2026, 13:45 UTC

1 60001U 69046G   26227.57328269 -.00001077  00000-0  00000-0 0  9999
2 60001  17.5690  38.8285 8013205 270.2721   0.4542  0.46172440 21737

AllMySatでVELA 9/10 INTERSTAGEをリアルタイム追跡

Download on the App Store